GW6590 Weather Reports


time (UTC)temp
F
wind
direction
speed
knots
gust
knots
rain 1hr
in
rain 24hr
in
rain mn
in
humidity
%
barometer
mb
20260504193010 71 246 3.5 5.2 0.00 0.00 0.00 33 1024.9
20260504192508 69 257 4.3 6.1 0.00 0.00 0.00 34 1024.9
20260504192006 70 353 5.2 7.8 0.00 0.00 0.00 31 1024.9
20260504191504 69 294 3.5 5.2 0.00 0.00 0.00 33 1025.0
20260504190959 68 75 0.9 1.7 0.00 0.00 0.00 33 1024.9
20260504190455 70 258 3.5 5.2 0.00 0.00 0.00 31 1024.9
20260504185952 71 287 6.1 8.7 0.00 0.00 0.00 30 1024.8
20260504185449 71 344 6.1 7.0 0.00 0.00 0.00 31 1025.1
20260504184945 71 314 5.2 7.8 0.00 0.00 0.00 31 1025.0
20260504184441 71 349 3.5 5.2 0.00 0.00 0.00 30 1025.0
20260504183937 71 270 7.0 8.7 0.00 0.00 0.00 31 1025.1
20260504183434 70 278 3.5 5.2 0.00 0.00 0.00 33 1025.0
20260504182932 71 250 2.6 5.2 0.00 0.00 0.00 32 1025.0
20260504182429 69 338 3.5 6.1 0.00 0.00 0.00 33 1025.3
20260504181926 69 294 5.2 7.8 0.00 0.00 0.00 33 1025.2
20260504181423 69 292 2.6 5.2 0.00 0.00 0.00 31 1025.5
20260504180922 69 259 3.5 3.5 0.00 0.00 0.00 34 1025.6
20260504180420 70 208 7.8 9.6 0.00 0.00 0.00 31 1025.6
20260504175918 69 139 2.6 3.5 0.00 0.00 0.00 35 1025.6
20260504175415 69 217 0.9 0.9 0.00 0.00 0.00 32 1025.6
20260504174912 69 131 1.7 2.6 0.00 0.00 0.00 33 1025.5
20260504174410 69 253 4.3 8.7 0.00 0.00 0.00 31 1025.9
20260504173907 68 223 1.7 1.7 0.00 0.00 0.00 33 1025.9
20260504173403 68 343 2.6 3.5 0.00 0.00 0.00 33 1025.9
20260504172901 68 291 3.5 3.5 0.00 0.00 0.00 31 1025.9
20260504172357 68 160 0.9 0.9 0.00 0.00 0.00 32 1026.0
20260504171853 68 224 7.0 8.7 0.00 0.00 0.00 30 1026.1
20260504171350 68 309 4.3 6.1 0.00 0.00 0.00 32 1026.0
20260504170847 68 30 3.5 5.2 0.00 0.00 0.00 34 1025.7
20260504170344 68 231 1.7 1.7 0.00 0.00 0.00 33 1026.1
20260504160303 66 199 2.6 3.5 0.00 0.00 0.00 34 1026.7
20260504150728 65 186 2.6 3.5 0.00 0.00 0.00 37 1027.5
20260504150224 64 253 2.6 2.6 0.00 0.00 0.00 35 1027.2
20260504141154 62 162 0.9 0.9 0.00 0.00 0.00 41 1027.9
20260504140650 61 246 1.7 2.6 0.00 0.00 0.00 39 1027.7
20260504140146 61 286 5.2 8.7 0.00 0.00 0.00 37 1027.9
20260504130614 58 276 2.6 2.6 0.00 0.00 0.00 45 1028.5
20260504130111 58 210 1.7 1.7 0.00 0.00 0.00 44 1028.4
20260504110502 48 274 0.9 0.9 0.00 0.00 0.00 55 1028.6
20260504100424 46 109 0.0 0.0 0.00 0.00 0.00 56 1028.4
20260504081817 47 112 0.0 0.0 0.00 0.00 0.00 53 1027.6
20260504081314 47 147 0.0 0.0 0.00 0.00 0.00 52 1027.6
20260504080810 47 98 0.0 0.9 0.00 0.00 0.00 50 1027.5
20260504080307 47 105 0.9 0.9 0.00 0.00 0.00 51 1027.7
20260504070235 47 131 0.0 0.0 0.00 0.00 0.00 54 1027.6
20260504060155 43 141 0.0 0.0 0.00 0.00 0.00 67 1027.8
20260504050623 40 121 0.9 0.9 0.00 0.00 0.00 69 1027.8
20260504050120 40 130 0.0 0.9 0.00 0.00 0.00 68 1027.8
20260504045617 40 122 0.0 0.9 0.00 0.00 0.00 68 1027.9
20260504045112 40 118 0.0 0.0 0.00 0.00 0.00 68 1027.9
20260504044610 40 110 0.9 0.9 0.00 0.00 0.00 67 1028.1
20260504044106 40 127 0.0 0.0 0.00 0.00 0.00 67 1027.9
20260504043604 40 121 0.9 0.9 0.00 0.00 0.00 67 1027.9
20260504043101 40 112 0.9 0.9 0.00 0.00 0.00 66 1028.0
20260504042558 40 106 0.9 0.9 0.00 0.00 0.00 65 1028.0
20260504042055 40 90 0.9 0.9 0.00 0.00 0.00 67 1028.1
20260504041550 40 99 0.9 0.9 0.00 0.00 0.00 66 1027.9
20260504041047 40 106 0.9 0.9 0.00 0.00 0.00 67 1027.9
20260504040544 40 112 0.0 0.0 0.00 0.00 0.00 67 1027.9
20260504040041 40 111 0.0 0.0 0.00 0.00 0.00 66 1027.8
20260504035538 40 113 0.9 0.9 0.00 0.00 0.00 67 1027.9
20260504035034 40 112 0.0 0.9 0.00 0.00 0.00 66 1027.8
20260504034533 41 106 0.0 0.9 0.00 0.00 0.00 65 1027.6
20260504034029 41 116 0.9 0.9 0.00 0.00 0.00 63 1027.7
20260504033527 41 128 0.0 0.0 0.00 0.00 0.00 63 1027.6
20260504033024 40 121 0.0 0.0 0.00 0.00 0.00 63 1027.6
20260504032521 40 126 0.0 0.0 0.00 0.00 0.00 66 1027.7
20260504032017 40 109 0.0 0.0 0.00 0.00 0.00 66 1027.7
20260504031515 40 111 0.0 0.0 0.00 0.00 0.00 64 1027.6
20260504031010 40 114 0.0 0.0 0.00 0.00 0.00 64 1027.8
20260504030508 40 112 0.0 0.0 0.00 0.00 0.00 64 1027.6
20260504030004 40 120 0.0 0.0 0.00 0.00 0.00 65 1027.7
20260504025501 40 128 0.0 0.0 0.00 0.00 0.00 66 1027.6
20260504024958 40 104 0.0 0.9 0.00 0.00 0.00 66 1027.5
20260504024455 40 116 0.0 0.0 0.00 0.00 0.00 66 1027.7
20260504023952 40 120 0.0 0.0 0.00 0.00 0.00 68 1027.6
20260504023449 40 135 0.0 0.0 0.00 0.00 0.00 68 1027.5
20260504022944 40 111 0.0 0.0 0.00 0.00 0.00 66 1027.4
20260504022440 40 132 0.0 0.0 0.00 0.00 0.00 67 1027.5
20260504021937 40 123 0.0 0.9 0.00 0.00 0.00 68 1027.5
20260504021435 40 150 0.0 0.0 0.00 0.00 0.00 66 1027.6
20260504020932 40 117 0.0 0.9 0.00 0.00 0.00 66 1027.2
20260504020428 40 117 0.9 0.9 0.00 0.00 0.00 67 1027.4
20260504015925 40 114 0.9 1.7 0.00 0.00 0.00 66 1027.4
20260504015421 41 106 0.9 0.9 0.00 0.00 0.00 66 1027.1
20260504014917 41 113 0.0 0.9 0.00 0.00 0.00 65 1027.3
20260504014413 41 118 0.0 0.9 0.00 0.00 0.00 65 1027.2
20260504013910 41 107 0.9 0.9 0.00 0.00 0.00 65 1027.0
20260504013409 41 115 0.0 0.9 0.00 0.00 0.00 65 1027.2
20260504012904 41 109 0.9 0.9 0.00 0.00 0.00 65 1027.2
20260504012403 42 112 0.9 0.9 0.00 0.00 0.00 64 1027.0
20260504011859 41 114 0.9 0.9 0.00 0.00 0.00 64 1027.2
20260504011356 41 108 0.9 0.9 0.00 0.00 0.00 65 1027.0
20260504010852 41 112 0.0 0.9 0.00 0.00 0.00 64 1026.8
20260504010348 42 109 0.0 0.0 0.00 0.00 0.00 63 1026.8
20260504005845 42 112 0.9 0.9 0.00 0.00 0.00 62 1026.7
20260504005341 42 109 0.9 0.9 0.00 0.00 0.00 62 1026.6
20260504004839 42 112 0.9 0.9 0.00 0.00 0.00 62 1026.6
20260504004337 42 108 0.9 0.9 0.00 0.00 0.00 62 1026.4
20260504003833 42 113 0.0 0.0 0.00 0.00 0.00 62 1026.4
20260504003330 42 111 0.9 0.9 0.00 0.00 0.00 62 1026.3
20260504002827 43 108 0.9 0.9 0.00 0.00 0.00 60 1026.3
20260504002323 43 111 0.9 0.9 0.00 0.00 0.00 59 1026.1
20260504001821 43 160 0.0 0.0 0.00 0.00 0.00 59 1026.2
20260504001318 43 160 0.0 0.0 0.00 0.00 0.00 56 1026.0
20260504000815 44 160 0.0 0.0 0.00 0.00 0.00 56 1025.9
20260504000312 44 168 0.0 0.0 0.00 0.00 0.00 55 1025.9
20260503235810 46 168 0.0 0.0 0.00 0.00 0.00 53 1025.8
20260503235307 46 169 0.0 0.0 0.00 0.00 0.00 51 1025.7
20260503234805 48 176 0.0 0.0 0.00 0.00 0.00 50 1025.7
20260503234302 50 175 0.0 0.0 0.00 0.00 0.00 47 1025.7
20260503233800 51 237 0.0 0.0 0.00 0.00 0.00 42 1025.8
20260503233255 51 262 0.0 0.0 0.00 0.00 0.00 41 1025.7
20260503232752 51 251 0.9 0.9 0.00 0.00 0.00 40 1025.7
20260503232250 52 252 0.0 0.0 0.00 0.00 0.00 38 1025.6
20260503231748 52 245 1.7 1.7 0.00 0.00 0.00 39 1025.6
20260503231245 52 267 3.5 3.5 0.00 0.00 0.00 37 1025.4
20260503230740 52 243 0.0 0.9 0.00 0.00 0.00 37 1025.5
20260503230238 53 257 1.7 2.6 0.00 0.00 0.00 37 1025.4
20260503225735 53 268 0.9 1.7 0.00 0.00 0.00 37 1025.6
20260503225235 53 200 1.7 1.7 0.00 0.00 0.00 37 1025.5
20260503224732 53 16 1.7 2.6 0.00 0.00 0.00 36 1025.4
20260503224230 53 263 1.7 2.6 0.00 0.00 0.00 36 1025.6
20260503223727 53 15 0.9 1.7 0.00 0.00 0.00 37 1025.4
20260503223225 53 349 1.7 2.6 0.00 0.00 0.00 36 1025.3
20260503222721 53 314 1.7 3.5 0.00 0.00 0.00 35 1025.4
20260503222219 54 312 3.5 3.5 0.00 0.00 0.00 35 1025.4
20260503221717 54 269 1.7 2.6 0.00 0.00 0.00 36 1025.3
20260503221215 54 298 0.9 1.7 0.00 0.00 0.00 36 1025.3
20260503220711 54 272 5.2 7.0 0.00 0.00 0.00 37 1025.5
20260503220208 54 237 3.5 5.2 0.00 0.00 0.00 36 1025.4
20260503215704 54 332 1.7 1.7 0.00 0.00 0.00 37 1025.4
20260503215201 54 303 6.1 7.0 0.00 0.00 0.00 37 1025.5
20260503214700 54 8 1.7 2.6 0.00 0.00 0.00 38 1025.4
20260503214155 54 325 2.6 3.5 0.00 0.00 0.00 36 1025.4
20260503213655 54 297 4.3 5.2 0.00 0.00 0.00 37 1025.3
20260503213151 54 268 2.6 6.1 0.00 0.00 0.00 38 1025.4
20260503212649 55 259 4.3 6.1 0.00 0.00 0.00 35 1025.4
20260503212146 54 262 1.7 2.6 0.00 0.00 0.00 38 1025.4
20260503211644 54 347 4.3 6.1 0.00 0.00 0.00 38 1025.1
20260503211138 54 290 4.3 5.2 0.00 0.00 0.00 35 1025.1
20260503210635 54 305 2.6 5.2 0.00 0.00 0.00 37 1025.1
20260503210132 54 289 2.6 3.5 0.00 0.00 0.00 36 1025.1
20260503205628 54 268 5.2 7.8 0.00 0.00 0.00 36 1025.1
20260503205124 53 310 2.6 3.5 0.00 0.00 0.00 37 1025.1
20260503204621 53 268 5.2 6.1 0.00 0.00 0.00 37 1025.2
20260503204119 52 230 7.0 7.8 0.00 0.00 0.00 39 1025.0
20260503203616 51 352 1.7 2.6 0.00 0.00 0.00 39 1025.0
20260503203113 51 81 3.5 5.2 0.00 0.00 0.00 38 1024.9
20260503202610 52 206 4.3 5.2 0.00 0.00 0.00 39 1024.9
20260503202108 52 256 3.5 3.5 0.00 0.00 0.00 38 1024.9
20260503201606 51 118 1.7 3.5 0.00 0.00 0.00 40 1024.9
20260503201103 52 35 2.6 6.1 0.00 0.00 0.00 39 1024.8
20260503200559 53 334 2.6 3.5 0.00 0.00 0.00 37 1024.9
20260503200056 53 285 2.6 5.2 0.00 0.00 0.00 42 1024.8
20260503195553 52 6 1.7 2.6 0.00 0.00 0.00 41 1024.7
20260503195050 52 288 0.9 1.7 0.00 0.00 0.00 41 1024.8
20260503194547 52 303 2.6 2.6 0.00 0.00 0.00 37 1024.8
20260503194047 52 286 3.5 3.5 0.00 0.00 0.00 39 1024.8
20260503193544 52 267 2.6 2.6 0.00 0.00 0.00 38 1024.8